| time (UTC) | temp F | wind direction | speed MPH | gust MPH | rain 1hr in | rain 24hr in | rain mn in | humidity % | barometer mb |
| 20260504081547 | 63 | 323 | 0.0 | 11.0 | 0.00 | 0.00 | 0.00 | 58 | 1008.8 |
| 20260504081043 | 63 | 286 | 0.0 | 11.0 | 0.00 | 0.00 | 0.00 | 58 | 1008.8 |
| 20260504080543 | 63 | 315 | 1.0 | 7.0 | 0.00 | 0.00 | 0.00 | 58 | 1008.7 |
| 20260504050531 | 66 | 267 | 0.0 | 1.0 | 0.00 | 0.00 | 0.00 | 57 | 1009.2 |
| 20260504045529 | 66 | 267 | 0.0 | 1.0 | 0.00 | 0.00 | 0.00 | 57 | 1009.3 |
| 20260504045029 | 66 | 267 | 0.0 | 1.0 | 0.00 | 0.00 | 0.00 | 56 | 1009.2 |
| 20260504044538 | 66 | 265 | 0.0 | 1.0 | 0.00 | 0.00 | 0.00 | 56 | 1009.1 |
| 20260504044030 | 66 | 265 | 0.0 | 1.0 | 0.00 | 0.00 | 0.00 | 57 | 1009.2 |
| 20260504043529 | 67 | 265 | 0.0 | 2.0 | 0.00 | 0.00 | 0.00 | 56 | 1009.2 |
| 20260504043029 | 67 | 265 | 0.0 | 2.0 | 0.00 | 0.00 | 0.00 | 57 | 1009.0 |
| 20260504042528 | 68 | 265 | 0.0 | 2.0 | 0.00 | 0.00 | 0.00 | 56 | 1009.1 |
| 20260504042033 | 68 | 265 | 0.0 | 1.0 | 0.00 | 0.00 | 0.00 | 55 | 1009.0 |
| 20260504041531 | 68 | 265 | 0.0 | 1.0 | 0.00 | 0.00 | 0.00 | 54 | 1009.1 |
| 20260504041028 | 68 | 265 | 0.0 | 0.0 | 0.00 | 0.00 | 0.00 | 52 | 1009.0 |
| 20260504040529 | 68 | 265 | 0.0 | 1.0 | 0.00 | 0.00 | 0.00 | 51 | 1008.9 |
| 20260504040028 | 69 | 265 | 0.0 | 1.0 | 0.00 | 0.00 | 0.00 | 51 | 1009.0 |
| 20260504035527 | 69 | 265 | 0.0 | 1.0 | 0.00 | 0.00 | 0.00 | 51 | 1008.9 |
| 20260504035027 | 69 | 265 | 0.0 | 1.0 | 0.00 | 0.00 | 0.00 | 50 | 1008.9 |
| 20260504034528 | 70 | 265 | 0.0 | 2.0 | 0.00 | 0.00 | 0.00 | 51 | 1009.0 |
| 20260504034027 | 70 | 265 | 0.0 | 2.0 | 0.00 | 0.00 | 0.00 | 51 | 1009.0 |
| 20260504033531 | 71 | 303 | 0.0 | 1.0 | 0.00 | 0.00 | 0.00 | 48 | 1008.9 |
| 20260504033027 | 71 | 302 | 0.0 | 1.0 | 0.00 | 0.00 | 0.00 | 47 | 1009.0 |
| 20260504032527 | 71 | 302 | 0.0 | 1.0 | 0.00 | 0.00 | 0.00 | 47 | 1008.8 |
| 20260504032027 | 72 | 302 | 0.0 | 1.0 | 0.00 | 0.00 | 0.00 | 47 | 1008.8 |
| 20260504031527 | 72 | 302 | 0.0 | 1.0 | 0.00 | 0.00 | 0.00 | 48 | 1008.9 |
| 20260504031026 | 73 | 302 | 0.0 | 1.0 | 0.00 | 0.00 | 0.00 | 48 | 1008.9 |
| 20260504030526 | 73 | 302 | 0.0 | 1.0 | 0.00 | 0.00 | 0.00 | 48 | 1008.9 |
| 20260504030036 | 74 | 302 | 0.0 | 1.0 | 0.00 | 0.00 | 0.00 | 45 | 1009.0 |
| 20260504025526 | 74 | 302 | 0.0 | 1.0 | 0.00 | 0.00 | 0.00 | 44 | 1008.9 |
| 20260504025027 | 75 | 302 | 0.0 | 1.0 | 0.00 | 0.00 | 0.00 | 43 | 1008.9 |
| 20260504024525 | 75 | 302 | 0.0 | 0.0 | 0.00 | 0.00 | 0.00 | 44 | 1008.9 |
| 20260504024026 | 76 | 302 | 0.0 | 2.0 | 0.00 | 0.00 | 0.00 | 42 | 1009.1 |
| 20260504023524 | 76 | 302 | 0.0 | 2.0 | 0.00 | 0.00 | 0.00 | 41 | 1009.0 |
| 20260504023024 | 76 | 98 | 0.0 | 1.0 | 0.00 | 0.00 | 0.00 | 40 | 1009.1 |
| 20260504022524 | 77 | 96 | 0.0 | 1.0 | 0.00 | 0.00 | 0.00 | 42 | 1009.0 |
| 20260504022027 | 77 | 96 | 0.0 | 0.0 | 0.00 | 0.00 | 0.00 | 39 | 1009.1 |
| 20260504021528 | 77 | 96 | 0.0 | 1.0 | 0.00 | 0.00 | 0.00 | 39 | 1009.1 |
| 20260504021023 | 77 | 96 | 0.0 | 1.0 | 0.00 | 0.00 | 0.00 | 37 | 1009.2 |
| 20260504020523 | 77 | 96 | 0.0 | 1.0 | 0.00 | 0.00 | 0.00 | 38 | 1009.3 |
| 20260504020022 | 77 | 96 | 0.0 | 1.0 | 0.00 | 0.00 | 0.00 | 39 | 1009.2 |
| 20260504015522 | 77 | 96 | 0.0 | 1.0 | 0.00 | 0.00 | 0.00 | 40 | 1009.2 |
| 20260504015025 | 77 | 96 | 0.0 | 1.0 | 0.00 | 0.00 | 0.00 | 37 | 1009.3 |
| 20260504014521 | 78 | 96 | 0.0 | 1.0 | 0.00 | 0.00 | 0.00 | 36 | 1009.4 |
| 20260504014024 | 78 | 96 | 0.0 | 1.0 | 0.00 | 0.00 | 0.00 | 35 | 1009.4 |
| 20260504013523 | 78 | 96 | 0.0 | 2.0 | 0.00 | 0.00 | 0.00 | 34 | 1009.4 |
| 20260504013021 | 79 | 96 | 0.0 | 1.0 | 0.00 | 0.00 | 0.00 | 37 | 1009.5 |
| 20260504012522 | 80 | 96 | 0.0 | 1.0 | 0.00 | 0.00 | 0.00 | 34 | 1009.6 |
| 20260504012021 | 80 | 96 | 0.0 | 2.0 | 0.00 | 0.00 | 0.00 | 33 | 1009.6 |
| 20260504011519 | 80 | 96 | 0.0 | 5.0 | 0.00 | 0.00 | 0.00 | 32 | 1009.5 |
| 20260504011019 | 81 | 346 | 0.0 | 5.0 | 0.00 | 0.00 | 0.00 | 31 | 1009.6 |
| 20260504010518 | 81 | 238 | 0.0 | 4.0 | 0.00 | 0.00 | 0.00 | 32 | 1009.6 |
| 20260504010018 | 81 | 263 | 0.0 | 4.0 | 0.00 | 0.00 | 0.00 | 31 | 1009.7 |
| 20260504005520 | 81 | 228 | 1.0 | 8.0 | 0.00 | 0.00 | 0.00 | 30 | 1009.7 |
| 20260504005017 | 80 | 227 | 1.0 | 8.0 | 0.00 | 0.00 | 0.00 | 31 | 1009.8 |
| 20260504004522 | 81 | 56 | 0.0 | 7.0 | 0.00 | 0.00 | 0.00 | 31 | 1009.8 |
| 20260504004015 | 80 | 214 | 0.0 | 2.0 | 0.00 | 0.00 | 0.00 | 34 | 1009.8 |
| 20260504003515 | 81 | 141 | 0.0 | 2.0 | 0.00 | 0.00 | 0.00 | 33 | 1009.9 |
| 20260504003015 | 81 | 248 | 0.0 | 2.0 | 0.00 | 0.00 | 0.00 | 34 | 1009.9 |
| 20260504002515 | 81 | 263 | 0.0 | 4.0 | 0.00 | 0.00 | 0.00 | 32 | 1010.0 |
| 20260504002014 | 80 | 300 | 0.0 | 3.0 | 0.00 | 0.00 | 0.00 | 35 | 1010.1 |
| 20260504001514 | 80 | 108 | 0.0 | 3.0 | 0.00 | 0.00 | 0.00 | 35 | 1010.1 |
| 20260504001013 | 80 | 109 | 0.0 | 2.0 | 0.00 | 0.00 | 0.00 | 35 | 1010.3 |
| 20260504000511 | 81 | 107 | 0.0 | 2.0 | 0.00 | 0.00 | 0.00 | 35 | 1010.3 |
| 20260504000011 | 81 | 107 | 0.0 | 3.0 | 0.00 | 0.00 | 0.00 | 34 | 1010.4 |
| 20260503235511 | 81 | 107 | 0.0 | 4.0 | 0.00 | 0.00 | 0.00 | 36 | 1010.4 |
| 20260503235011 | 82 | 106 | 1.0 | 4.0 | 0.00 | 0.00 | 0.00 | 33 | 1010.4 |
| 20260503234521 | 82 | 103 | 0.0 | 4.0 | 0.00 | 0.00 | 0.00 | 33 | 1010.4 |
| 20260503234011 | 81 | 107 | 1.0 | 4.0 | 0.00 | 0.00 | 0.00 | 36 | 1010.4 |
| 20260503233509 | 82 | 103 | 1.0 | 4.0 | 0.00 | 0.00 | 0.00 | 35 | 1010.5 |
| 20260503233009 | 82 | 103 | 1.0 | 4.0 | 0.00 | 0.00 | 0.00 | 35 | 1010.6 |
| 20260503232509 | 82 | 92 | 1.0 | 4.0 | 0.00 | 0.00 | 0.00 | 35 | 1010.7 |
| 20260503232008 | 82 | 95 | 2.0 | 4.0 | 0.00 | 0.00 | 0.00 | 36 | 1010.7 |
| 20260503231508 | 82 | 119 | 0.0 | 3.0 | 0.00 | 0.00 | 0.00 | 33 | 1010.8 |
| 20260503231011 | 82 | 119 | 1.0 | 4.0 | 0.00 | 0.00 | 0.00 | 36 | 1010.9 |
| 20260503230510 | 81 | 126 | 1.0 | 4.0 | 0.00 | 0.00 | 0.00 | 34 | 1011.0 |
| 20260503230006 | 82 | 103 | 1.0 | 4.0 | 0.00 | 0.00 | 0.00 | 34 | 1011.0 |
| 20260503225503 | 82 | 103 | 1.0 | 4.0 | 0.00 | 0.00 | 0.00 | 37 | 1011.1 |
| 20260503225003 | 81 | 102 | 2.0 | 4.0 | 0.00 | 0.00 | 0.00 | 39 | 1011.1 |
| 20260503224503 | 81 | 98 | 1.0 | 4.0 | 0.00 | 0.00 | 0.00 | 39 | 1011.2 |
| 20260503224002 | 81 | 116 | 1.0 | 3.0 | 0.00 | 0.00 | 0.00 | 37 | 1011.2 |
| 20260503223501 | 81 | 96 | 0.0 | 4.0 | 0.00 | 0.00 | 0.00 | 36 | 1011.3 |
| 20260503223002 | 81 | 103 | 1.0 | 4.0 | 0.00 | 0.00 | 0.00 | 36 | 1011.4 |
| 20260503222501 | 81 | 103 | 1.0 | 6.0 | 0.00 | 0.00 | 0.00 | 40 | 1011.3 |
| 20260503222059 | 81 | 94 | 2.0 | 6.0 | 0.00 | 0.00 | 0.00 | 34 | 1011.4 |
| 20260503221559 | 81 | 91 | 2.0 | 4.0 | 0.00 | 0.00 | 0.00 | 36 | 1011.5 |
| 20260503221058 | 81 | 105 | 2.0 | 4.0 | 0.00 | 0.00 | 0.00 | 37 | 1011.6 |
| 20260503220558 | 81 | 69 | 0.0 | 4.0 | 0.00 | 0.00 | 0.00 | 37 | 1011.6 |
| 20260503220059 | 81 | 102 | 2.0 | 4.0 | 0.00 | 0.00 | 0.00 | 41 | 1011.7 |
| 20260503215555 | 81 | 104 | 1.0 | 6.0 | 0.00 | 0.00 | 0.00 | 41 | 1011.9 |
| 20260503215055 | 81 | 99 | 1.0 | 6.0 | 0.00 | 0.00 | 0.00 | 36 | 1011.8 |
| 20260503214555 | 81 | 113 | 2.0 | 6.0 | 0.00 | 0.00 | 0.00 | 43 | 1011.8 |
| 20260503214053 | 81 | 105 | 0.0 | 6.0 | 0.00 | 0.00 | 0.00 | 42 | 1011.9 |
| 20260503213552 | 81 | 107 | 1.0 | 3.0 | 0.00 | 0.00 | 0.00 | 38 | 1012.0 |
| 20260503213057 | 80 | 100 | 0.0 | 3.0 | 0.00 | 0.00 | 0.00 | 36 | 1012.2 |
| 20260503212552 | 79 | 115 | 0.0 | 7.0 | 0.00 | 0.00 | 0.00 | 40 | 1012.2 |
| 20260503212049 | 79 | 346 | 1.0 | 7.0 | 0.00 | 0.00 | 0.00 | 40 | 1012.2 |
| 20260503211548 | 79 | 111 | 1.0 | 6.0 | 0.00 | 0.00 | 0.00 | 42 | 1012.2 |
| 20260503211047 | 79 | 111 | 1.0 | 6.0 | 0.00 | 0.00 | 0.00 | 43 | 1012.3 |
| 20260503210546 | 79 | 105 | 2.0 | 6.0 | 0.00 | 0.00 | 0.00 | 44 | 1012.3 |
| 20260503210050 | 77 | 113 | 1.0 | 6.0 | 0.00 | 0.00 | 0.00 | 43 | 1012.2 |
| 20260503205544 | 77 | 113 | 1.0 | 6.0 | 0.00 | 0.00 | 0.00 | 44 | 1012.4 |
| 20260503205044 | 77 | 108 | 2.0 | 5.0 | 0.00 | 0.00 | 0.00 | 39 | 1012.6 |
| 20260503204542 | 78 | 117 | 1.0 | 6.0 | 0.00 | 0.00 | 0.00 | 39 | 1012.5 |
| 20260503204043 | 76 | 105 | 1.0 | 6.0 | 0.00 | 0.00 | 0.00 | 39 | 1012.6 |
| 20260503203540 | 76 | 103 | 1.0 | 4.0 | 0.00 | 0.00 | 0.00 | 48 | 1012.7 |
| 20260503203038 | 76 | 112 | 2.0 | 7.0 | 0.00 | 0.00 | 0.00 | 45 | 1012.8 |
| 20260503202538 | 75 | 80 | 3.0 | 8.0 | 0.00 | 0.00 | 0.00 | 44 | 1013.0 |
| 20260503202037 | 75 | 116 | 2.0 | 8.0 | 0.00 | 0.00 | 0.00 | 43 | 1012.9 |
| 20260503201536 | 75 | 109 | 3.0 | 9.0 | 0.00 | 0.00 | 0.00 | 45 | 1013.0 |
| 20260503201035 | 76 | 106 | 2.0 | 9.0 | 0.00 | 0.00 | 0.00 | 44 | 1013.0 |
| 20260503200534 | 76 | 102 | 0.0 | 2.0 | 0.00 | 0.00 | 0.00 | 39 | 1013.0 |
| 20260503200036 | 75 | 102 | 0.0 | 4.0 | 0.00 | 0.00 | 0.00 | 38 | 1013.2 |
| 20260503195532 | 75 | 103 | 0.0 | 6.0 | 0.00 | 0.00 | 0.00 | 42 | 1013.2 |
| 20260503195031 | 74 | 113 | 0.0 | 4.0 | 0.00 | 0.00 | 0.00 | 39 | 1013.2 |
| 20260503194531 | 73 | 115 | 1.0 | 3.0 | 0.00 | 0.00 | 0.00 | 38 | 1013.2 |
| 20260503194031 | 74 | 61 | 0.0 | 3.0 | 0.00 | 0.00 | 0.00 | 42 | 1013.2 |
| 20260503193530 | 74 | 129 | 0.0 | 2.0 | 0.00 | 0.00 | 0.00 | 41 | 1013.2 |
| 20260503193034 | 73 | 223 | 0.0 | 6.0 | 0.00 | 0.00 | 0.00 | 41 | 1013.2 |
| 20260503192528 | 73 | 98 | 2.0 | 6.0 | 0.00 | 0.00 | 0.00 | 46 | 1013.2 |
| 20260503192031 | 73 | 12 | 0.0 | 2.0 | 0.00 | 0.00 | 0.00 | 43 | 1013.3 |
| 20260503191528 | 73 | 46 | 0.0 | 2.0 | 0.00 | 0.00 | 0.00 | 44 | 1013.3 |
| 20260503191029 | 73 | 88 | 0.0 | 3.0 | 0.00 | 0.00 | 0.00 | 44 | 1013.4 |
| 20260503190527 | 72 | 109 | 0.0 | 6.0 | 0.00 | 0.00 | 0.00 | 42 | 1013.3 |
| 20260503190030 | 72 | 105 | 0.0 | 3.0 | 0.00 | 0.00 | 0.00 | 43 | 1013.3 |
| 20260503185527 | 73 | 61 | 0.0 | 7.0 | 0.00 | 0.00 | 0.00 | 46 | 1013.5 |
| 20260503185025 | 73 | 82 | 1.0 | 7.0 | 0.00 | 0.00 | 0.00 | 46 | 1013.5 |
| 20260503184525 | 73 | 54 | 0.0 | 4.0 | 0.00 | 0.00 | 0.00 | 47 | 1013.5 |
| 20260503184025 | 73 | 110 | 1.0 | 4.0 | 0.00 | 0.00 | 0.00 | 47 | 1013.5 |
| 20260503183524 | 73 | 316 | 0.0 | 2.0 | 0.00 | 0.00 | 0.00 | 44 | 1013.5 |
| 20260503183035 | 72 | 159 | 0.0 | 3.0 | 0.00 | 0.00 | 0.00 | 51 | 1013.6 |
| 20260503182523 | 72 | 151 | 0.0 | 3.0 | 0.00 | 0.00 | 0.00 | 50 | 1013.6 |
| 20260503182021 | 72 | 112 | 0.0 | 3.0 | 0.00 | 0.00 | 0.00 | 46 | 1013.6 |
| 20260503181522 | 71 | 92 | 0.0 | 3.0 | 0.00 | 0.00 | 0.00 | 50 | 1013.6 |
| 20260503181020 | 71 | 104 | 0.0 | 1.0 | 0.00 | 0.00 | 0.00 | 51 | 1013.8 |
| 20260503180520 | 72 | 119 | 0.0 | 3.0 | 0.00 | 0.00 | 0.00 | 52 | 1014.0 |
| 20260503180020 | 70 | 119 | 0.0 | 3.0 | 0.00 | 0.00 | 0.00 | 49 | 1013.9 |
| 20260503175518 | 70 | 59 | 0.0 | 3.0 | 0.00 | 0.00 | 0.00 | 53 | 1014.0 |
| 20260503175020 | 70 | 314 | 0.0 | 3.0 | 0.00 | 0.00 | 0.00 | 52 | 1014.0 |
| 20260503174517 | 70 | 115 | 0.0 | 2.0 | 0.00 | 0.00 | 0.00 | 55 | 1013.9 |
| 20260503174016 | 69 | 107 | 0.0 | 2.0 | 0.00 | 0.00 | 0.00 | 54 | 1014.1 |
| 20260503173519 | 69 | 161 | 0.0 | 1.0 | 0.00 | 0.00 | 0.00 | 55 | 1014.2 |
| 20260503173017 | 68 | 159 | 0.0 | 4.0 | 0.00 | 0.00 | 0.00 | 53 | 1014.1 |
| 20260503172614 | 68 | 323 | 1.0 | 6.0 | 0.00 | 0.00 | 0.00 | 53 | 1014.1 |
| 20260503172014 | 68 | 103 | 1.0 | 6.0 | 0.00 | 0.00 | 0.00 | 55 | 1014.0 |
| 20260503171513 | 67 | 227 | 0.0 | 4.0 | 0.00 | 0.00 | 0.00 | 55 | 1014.1 |
| 20260503171011 | 66 | 255 | 0.0 | 4.0 | 0.00 | 0.00 | 0.00 | 56 | 1014.1 |
| 20260503170510 | 66 | 292 | 0.0 | 3.0 | 0.00 | 0.00 | 0.00 | 56 | 1014.1 |
| 20260503150552 | 57 | 319 | 2.0 | 8.0 | 0.00 | 0.00 | 0.00 | 74 | 1014.8 |
| 20260503131044 | 52 | 297 | 2.0 | 5.0 | 0.00 | 0.00 | 0.00 | 81 | 1014.8 |
| 20260503130543 | 52 | 306 | 1.0 | 5.0 | 0.00 | 0.00 | 0.00 | 81 | 1014.8 |
| 20260503110532 | 54 | 311 | 2.0 | 6.0 | 0.00 | 0.00 | 0.00 | 79 | 1015.1 |